Flag for Germany Weather past 2 weeks in Pirna, Saxony, Germany

Now
57 °F

Overcast.


Feels Like: 57 °F
Forecast: 50 / 69 °F
Wind: 2 mph from Southeast

Location: Dresden-Klotzsche

Current Time: Sep 3, 2015 at 5:21:49 AM

Latest Report: Sep 3, 2015 at 5:00 AM


Visibility: 28 mi

Pressure: 29.98 "Hg

Humidity: 79%

Dew point: 50 °F

Location of PirnaLocation

Historic Weather in Pirna — Graph

°F

Pirna temperature yesterday

Maximum temperature yesterday: 66 °F (at 4:00 PM)
Minimum temperature yesterday: 56 °F (at 7:00 AM)
Average temperature yesterday: 61 °F

Past Weeks' High & Low Weather Summary

 TemperatureHumidityPressure
High92 °F (Aug 31, 4:00 PM)100% (Aug 20, 7:00 AM)30.31 "Hg (Aug 20, 7:00 AM)
Low51 °F (Aug 22, 6:00 AM)29% (Aug 22, 3:00 PM)29.68 "Hg (Sep 1, 5:00 PM)
Average67 °F68%30.03 "Hg
* Reported Aug 19 4:00 AM — Sep 3 4:00 AM, Pirna, Weather by CustomWeather, © 2015

Note: Actual official high and low records may vary slightly from our data, if they occured in-between our weather recording intervals... More about our weather records

Advertising

Pirna weather history for previous 24 hours

 ConditionsComfort  
Time TempWeatherWind HumidityBarometerVisibility
4:00 AM
Thu, Sep 3
56 °FOvercast.5 mph85%29.99 "Hg31 mi
3:00 AM56 °FOvercast.5 mph87%30.00 "Hg31 mi
2:00 AM56 °FPassing clouds.5 mph87%30.00 "Hg37 mi
1:00 AM56 °FPassing clouds.3 mph83%30.01 "Hg37 mi
10:00 PM
Wed, Sep 2
62 °FPassing clouds.1 mph62%30.02 "Hg37 mi
9:00 PM63 °FPassing clouds.2 mph57%30.01 "Hg37 mi
8:00 PM63 °FPassing clouds.1 mph62%30.01 "Hg37 mi
7:00 PM65 °FOvercast.2 mph59%30.00 "Hg37 mi
6:00 PM66 °FPartly sunny.2 mph52%29.99 "Hg37 mi
4:00 PM66 °FPassing clouds.2 mph58%30.01 "Hg37 mi
3:00 PM66 °FPassing clouds.3 mph55%30.01 "Hg37 mi
2:00 PM64 °FScattered clouds.3 mph64%30.03 "Hg37 mi
1:00 PM62 °FScattered clouds.3 mph62%30.04 "Hg31 mi
12:00 PM61 °FScattered clouds.5 mph68%30.05 "Hg28 mi
11:00 AM61 °FScattered clouds.5 mph74%30.05 "Hg22 mi
10:00 AM59 °FScattered clouds.5 mph81%30.05 "Hg16 mi
9:00 AM58 °FPartly sunny.5 mph89%30.04 "Hg16 mi
8:00 AM56 °FOvercast.2 mph91%30.04 "Hg12 mi
7:00 AM56 °FOvercast.3 mph93%30.03 "Hg7 mi
Weather by CustomWeather, © 2015

See weather overviewHow to use our weather pages